Regional Weather Roundup
Issued by NWS Little Rock, AR

Current Version | Previous Version | Text Only | Print | Product List | Glossary On
Versions: 1 2 3 4 5 6 7 8 9 10 11 12 13 14 15 16 17 18 19 20 21 22 23 24 25 26 27 28 29 30 31 32 33 34 35 36 37 38 39 40 41 42 43 44 45 46 47 48 49 50
000
ASUS44 KLZK 301210
RWRLZK

WEATHER ROUNDUP FOR ARKANSAS
NATIONAL WEATHER SERVICE LITTLE ROCK AR
700 AM CDT FRI SEP 30 2022

NOTE: "FAIR" INDICATES FEW OR NO CLOUDS BELOW 12,000 FEET WITH NO
SIGNIFICANT WEATHER AND/OR OBSTRUCTIONS TO VISIBILITY.

ARZ001-010-029-103-301300-
NORTHWEST ARKANSAS

CITY           SKY/WX    TMP DP  RH WIND       PRES   REMARKS
FAYETTEVILLE   CLEAR     39  36  89 CALM      30.20R
6HR MIN TEMP:  37; 6HR MAX TEMP:  45;

FORT SMITH     CLEAR     48  45  89 NE3       30.18S
6HR MIN TEMP:  48; 6HR MAX TEMP:  56;

HARRISON       CLEAR     44  39  82 CALM      30.21R
6HR MIN TEMP:  42; 6HR MAX TEMP:  50;

BENTONVILLE    CLEAR     46  40  79 CALM      30.22R
6HR MIN TEMP:  44; 6HR MAX TEMP:  56;

ROGERS         CLEAR     43  42  97 MISG      30.21S
6HR MIN TEMP:  43; 6HR MAX TEMP:  55;

SILOAM SPGS    CLEAR     44  40  85 CALM      30.20S
6HR MIN TEMP:  43; 6HR MAX TEMP:  52;

HIGHFILL       CLEAR     45  39  79 CALM      30.20S
6HR MIN TEMP:  43; 6HR MAX TEMP:  53;

SPRINGDALE     CLEAR     45  45 100 CALM      30.20S
$$

ARZ004-005-016-301300-
NORTH CENTRAL ARKANSAS

CITY           SKY/WX    TMP DP  RH WIND       PRES   REMARKS
BATESVILLE     CLEAR     44  42  93 VRB5      30.21R
6HR MIN TEMP:  44; 6HR MAX TEMP:  50;

FLIPPIN        CLEAR     40  39  97 CALM      30.22S
6HR MIN TEMP:  40; 6HR MAX TEMP:  47;

MTN HOME       CLEAR     44  40  85 CALM      30.20S
6HR MIN TEMP:  43; 6HR MAX TEMP:  52;

$$

ARZ140-141-301300-
WEST CENTRAL ARKANSAS

CITY           SKY/WX    TMP DP  RH WIND       PRES   REMARKS
MENA             N/A     37  37  98 CALM      30.18S
MOUNT IDA      CLEAR     40  37  89 CALM      30.15
6HR MIN TEMP:  40; 6HR MAX TEMP:  47;

$$

ARZ009-017-025-026-028-301300-
NORTHEAST ARKANSAS

CITY           SKY/WX    TMP DP  RH WIND       PRES   REMARKS
JONESBORO      CLEAR     51  45  79 N7        30.19S
6HR MIN TEMP:  51; 6HR MAX TEMP:  58;

NEWPORT        CLEAR     45  42  89 N6        30.20R
6HR MIN TEMP:  45; 6HR MAX TEMP:  49;

WALNUT RIDGE   CLEAR     45  43  93 N6        30.20S
6HR MIN TEMP:  45; 6HR MAX TEMP:  52;

BLYTHEVILLE    CLEAR     41  39  93 N5        30.17R
6HR MIN TEMP:  41; 6HR MAX TEMP:  48;

$$

ARZ032-043-044-301300-
LITTLE ROCK METRO AREA

CITY           SKY/WX    TMP DP  RH WIND       PRES   REMARKS
LITTLE ROCK    CLEAR     53  42  66 N6        30.17S
6HR MIN TEMP:  51; 6HR MAX TEMP:  59;

N LTL ROCK NWS   N/A     52  43  70 N5        30.18F
6HR MIN TEMP:  52; 6HR MAX TEMP:  57;

JACKSONVILLE   CLEAR     43  40  89 CALM      30.14S
6HR MIN TEMP:  43; 6HR MAX TEMP:  50;

CONWAY         MOSUNNY   43  41  93 CALM      30.17S
$$

ARZ033-042-122-123-301300-
REMAINDER OF CENTRAL ARKANSAS

CITY           SKY/WX    TMP DP  RH WIND       PRES   REMARKS
SEARCY         CLEAR     50  44  80 N5        30.18S
6HR MIN TEMP:  50; 6HR MAX TEMP:  58;

HOT SPRINGS    CLEAR     48  44  86 CALM      30.16S
6HR MIN TEMP:  48; 6HR MAX TEMP:  60;

RUSSELLVILLE   CLEAR     43  40  89 CALM      30.17F
6HR MIN TEMP:  42; 6HR MAX TEMP:  51;

CLINTON        FAIR      39  39 100 CALM      30.20F
$$

ARZ036-301300-
EAST ARKANSAS

CITY           SKY/WX    TMP DP  RH WIND       PRES   REMARKS
WEST MEMPHIS   CLEAR     46  43  89 NW3       30.14S
6HR MIN TEMP:  46; 6HR MAX TEMP:  56;

$$

ARZ050-053-066-070-072-073-301300-
SOUTHWEST ARKANSAS

CITY           SKY/WX    TMP DP  RH WIND       PRES   REMARKS
ARKADELPHIA    FAIR      42  41  96 CALM      30.16S
6HR MIN TEMP:  41; 6HR MAX TEMP:  56;

CAMDEN         CLEAR     45  45 100 CALM      30.14S
TEXARKANA      CLEAR     52  43  71 E5        30.14S
6HR MIN TEMP:  51; 6HR MAX TEMP:  58;

MAGNOLIA       SUNNY     43  43 100 CALM      30.12R
EL DORADO      CLEAR     45  43  93 NW5       30.13S
6HR MIN TEMP:  45; 6HR MAX TEMP:  54;

DE QUEEN       CLEAR     43  40  89 E5        30.14S
6HR MIN TEMP:  43; 6HR MAX TEMP:  49;

$$

ARZ056-057-069-301300-
SOUTHEAST ARKANSAS

CITY           SKY/WX    TMP DP  RH WIND       PRES   REMARKS
PINE BLUFF     CLEAR     50  45  83 N6        30.15S
6HR MIN TEMP:  48; 6HR MAX TEMP:  59;

STUTTGART      CLEAR     45  44  97 N8        30.16S
6HR MIN TEMP:  45; 6HR MAX TEMP:  52;

MONTICELLO     CLEAR     48  44  86 CALM      30.13R
6HR MIN TEMP:  47; 6HR MAX TEMP:  58;


$$





USA.gov is the U.S. government's official web portal to all federal, state and local government web resources and services.